Location: Canazei
(46.4667°N, 11.7667°E)
Time: 09:51:52
(UTC+00:00)

Tiangong - Visible Passes

Search period start: 26 September 2021 00:00
Search period end: 06 October 2021 00:00
Orbit: 382 x 385 km, 41.5° (Epoch: 26 September)

Date Brightness Start Highest point End Pass type
(mag) Time Alt. Az. Time Alt. Az. Time Alt. Az.
26 Sep 3.8 04:01:38 10° S 04:02:53 12° SSE 04:04:07 10° SE visible
27 Sep 3.0 04:36:47 10° SW 04:39:19 22° SSE 04:41:53 10° ESE visible
28 Sep 3.3 03:38:24 14° S 03:39:35 17° SSE 03:41:45 10° ESE visible
29 Sep 2.6 04:13:38 12° SW 04:16:07 28° S 04:18:53 10° ESE visible
30 Sep 2.9 03:16:36 22° SSE 03:16:36 22° SSE 03:18:53 10° ESE visible
01 Oct 2.3 03:51:45 24° SW 03:52:53 31° S 03:55:45 10° ESE visible
02 Oct 3.6 02:54:41 18° ESE 02:54:41 18° ESE 02:55:50 10° ESE visible
02 Oct 2.3 04:26:53 11° WSW 04:29:29 30° S 04:32:19 10° ESE visible
03 Oct 2.2 03:29:50 32° S 03:29:50 32° S 03:32:31 10° ESE visible
04 Oct 2.5 04:05:00 20° SW 04:06:12 26° SSW 04:08:54 10° SE visible
05 Oct 3.4 03:08:00 19° SE 03:08:00 19° SE 03:09:11 10° ESE visible
05 Oct 3.2 04:40:46 10° WSW 04:42:38 15° SSW 04:44:30 10° SSE visible
